owner,sensor,date,latitude,longitude,air_temperature,qcFlag 
DISL,ioos:station:DISL:MBLA:1,2014-03-01T00:00:00Z,30.4367,-88.0117,12.54,1111122 
DISL,ioos:station:DISL:MBLA:1,2014-03-01T00:30:00Z,30.4367,-88.0117,12.61,1111122 
DISL,ioos:station:DISL:MBLA:1,2014-03-01T01:00:00Z,30.4367,-88.0117,12.3,1111122 
DISL,ioos:station:DISL:MBLA:1,2014-03-01T01:30:00Z,30.4367,-88.0117,12.31,1111122 
DISL,ioos:station:DISL:MBLA:1,2014-03-01T02:00:00Z,30.4367,-88.0117,12.31,1111122 
DISL,ioos:station:DISL:MBLA:1,2014-03-01T02:30:00Z,30.4367,-88.0117,12.34,1111122 
DISL,ioos:station:DISL:MBLA:1,2014-03-01T03:00:00Z,30.4367,-88.0117,12.31,1111122 
DISL,ioos:station:DISL:MBLA:1,2014-03-01T03:30:00Z,30.4367,-88.0117,12.2,1111122 
DISL,ioos:station:DISL:MBLA:1,2014-03-01T04:00:00Z,30.4367,-88.0117,12.24,1111122 
DISL,ioos:station:DISL:MBLA:1,2014-03-01T04:30:00Z,30.4367,-88.0117,12.41,1111122 
DISL,ioos:station:DISL:MBLA:1,2014-03-01T05:00:00Z,30.4367,-88.0117,12.65,1111122 
DISL,ioos:station:DISL:MBLA:1,2014-03-01T05:30:00Z,30.4367,-88.0117,13.29,1111122 
DISL,ioos:station:DISL:MBLA:1,2014-03-01T06:00:00Z,30.4367,-88.0117,13.29,1111122 
DISL,ioos:station:DISL:MBLA:1,2014-03-01T06:30:00Z,30.4367,-88.0117,13.43,1111122 
DISL,ioos:station:DISL:MBLA:1,2014-03-01T07:00:00Z,30.4367,-88.0117,13.59,1111122 
DISL,ioos:station:DISL:MBLA:1,2014-03-01T07:30:00Z,30.4367,-88.0117,13.79,1111122 
DISL,ioos:station:DISL:MBLA:1,2014-03-01T08:00:00Z,30.4367,-88.0117,13.45,1111122 
DISL,ioos:station:DISL:MBLA:1,2014-03-01T08:30:00Z,30.4367,-88.0117,13.55,1111122 
DISL,ioos:station:DISL:MBLA:1,2014-03-01T09:00:00Z,30.4367,-88.0117,13.52,1111122 
DISL,ioos:station:DISL:MBLA:1,2014-03-01T09:30:00Z,30.4367,-88.0117,13.49,1111122 
DISL,ioos:station:DISL:MBLA:1,2014-03-01T10:00:00Z,30.4367,-88.0117,13.18,1111122 
DISL,ioos:station:DISL:MBLA:1,2014-03-01T10:30:00Z,30.4367,-88.0117,13.25,1111122 
DISL,ioos:station:DISL:MBLA:1,2014-03-01T11:00:00Z,30.4367,-88.0117,13.22,1111122 
DISL,ioos:station:DISL:MBLA:1,2014-03-01T11:30:00Z,30.4367,-88.0117,13.15,1111122 
DISL,ioos:station:DISL:MBLA:1,2014-03-01T12:00:00Z,30.4367,-88.0117,13.12,1111122 
DISL,ioos:station:DISL:MBLA:1,2014-03-01T12:30:00Z,30.4367,-88.0117,12.51,1111122 
DISL,ioos:station:DISL:MBLA:1,2014-03-01T13:00:00Z,30.4367,-88.0117,12.71,1111122 
DISL,ioos:station:DISL:MBLA:1,2014-03-01T13:30:00Z,30.4367,-88.0117,12.85,1111122 
DISL,ioos:station:DISL:MBLA:1,2014-03-01T14:00:00Z,30.4367,-88.0117,13.32,1111122 
DISL,ioos:station:DISL:MBLA:1,2014-03-01T14:30:00Z,30.4367,-88.0117,13.96,1111122 
DISL,ioos:station:DISL:MBLA:1,2014-03-01T15:00:00Z,30.4367,-88.0117,14.54,1111122 
DISL,ioos:station:DISL:MBLA:1,2014-03-01T15:30:00Z,30.4367,-88.0117,14.7,1111122 
DISL,ioos:station:DISL:MBLA:1,2014-03-01T16:00:00Z,30.4367,-88.0117,14.66,1111122 
DISL,ioos:station:DISL:MBLA:1,2014-03-01T16:30:00Z,30.4367,-88.0117,14.9,1111122 
DISL,ioos:station:DISL:MBLA:1,2014-03-01T17:00:00Z,30.4367,-88.0117,14.87,1111122 
DISL,ioos:station:DISL:MBLA:1,2014-03-01T17:30:00Z,30.4367,-88.0117,15.13,1111122 
DISL,ioos:station:DISL:MBLA:1,2014-03-01T18:00:00Z,30.4367,-88.0117,15.3,1111122 
DISL,ioos:station:DISL:MBLA:1,2014-03-01T18:30:00Z,30.4367,-88.0117,15.33,1111122 
DISL,ioos:station:DISL:MBLA:1,2014-03-01T19:00:00Z,30.4367,-88.0117,15.3,1111122 
DISL,ioos:station:DISL:MBLA:1,2014-03-01T19:30:00Z,30.4367,-88.0117,15.57,1111122 
DISL,ioos:station:DISL:MBLA:1,2014-03-01T20:00:00Z,30.4367,-88.0117,15.6,1111122 
DISL,ioos:station:DISL:MBLA:1,2014-03-01T20:30:00Z,30.4367,-88.0117,15.87,1111122 
DISL,ioos:station:DISL:MBLA:1,2014-03-01T21:00:00Z,30.4367,-88.0117,15.9,1111122 
DISL,ioos:station:DISL:MBLA:1,2014-03-01T21:30:00Z,30.4367,-88.0117,16.0,1111122 
DISL,ioos:station:DISL:MBLA:1,2014-03-01T22:00:00Z,30.4367,-88.0117,15.83,1111122 
DISL,ioos:station:DISL:MBLA:1,2014-03-01T22:30:00Z,30.4367,-88.0117,15.49,1111122 
DISL,ioos:station:DISL:MBLA:1,2014-03-01T23:00:00Z,30.4367,-88.0117,15.73,1111122 
DISL,ioos:station:DISL:MBLA:1,2014-03-01T23:30:00Z,30.4367,-88.0117,15.33,1111122 
DISL,ioos:station:DISL:MBLA:1,2014-03-02T00:00:00Z,30.4367,-88.0117,15.33,1111122 
DISL,ioos:station:DISL:MBLA:1,2014-03-02T00:30:00Z,30.4367,-88.0117,15.2,1111122 
DISL,ioos:station:DISL:MBLA:1,2014-03-02T01:00:00Z,30.4367,-88.0117,15.07,1111122 
DISL,ioos:station:DISL:MBLA:1,2014-03-02T01:30:00Z,30.4367,-88.0117,14.9,1111122 
DISL,ioos:station:DISL:MBLA:1,2014-03-02T02:00:00Z,30.4367,-88.0117,15.17,1111122 
DISL,ioos:station:DISL:MBLA:1,2014-03-02T02:30:00Z,30.4367,-88.0117,15.07,1111122 
DISL,ioos:station:DISL:MBLA:1,2014-03-02T03:00:00Z,30.4367,-88.0117,14.97,1111122 
DISL,ioos:station:DISL:MBLA:1,2014-03-02T03:30:00Z,30.4367,-88.0117,14.7,1111122 
DISL,ioos:station:DISL:MBLA:1,2014-03-02T04:00:00Z,30.4367,-88.0117,14.74,1111122 
DISL,ioos:station:DISL:MBLA:1,2014-03-02T04:30:00Z,30.4367,-88.0117,14.91,1111122 
DISL,ioos:station:DISL:MBLA:1,2014-03-02T05:00:00Z,30.4367,-88.0117,14.94,1111122 
DISL,ioos:station:DISL:MBLA:1,2014-03-02T05:30:00Z,30.4367,-88.0117,14.71,1111122 
DISL,ioos:station:DISL:MBLA:1,2014-03-02T06:00:00Z,30.4367,-88.0117,14.54,1111122 
DISL,ioos:station:DISL:MBLA:1,2014-03-02T06:30:00Z,30.4367,-88.0117,14.5,1111122 
DISL,ioos:station:DISL:MBLA:1,2014-03-02T07:00:00Z,30.4367,-88.0117,14.47,1111122 
DISL,ioos:station:DISL:MBLA:1,2014-03-02T07:30:00Z,30.4367,-88.0117,14.37,1111122 
DISL,ioos:station:DISL:MBLA:1,2014-03-02T08:00:00Z,30.4367,-88.0117,14.26,1111122 
DISL,ioos:station:DISL:MBLA:1,2014-03-02T08:30:00Z,30.4367,-88.0117,14.06,1111122 
DISL,ioos:station:DISL:MBLA:1,2014-03-02T09:00:00Z,30.4367,-88.0117,14.26,1111122 
DISL,ioos:station:DISL:MBLA:1,2014-03-02T09:30:00Z,30.4367,-88.0117,14.23,1111122 
DISL,ioos:station:DISL:MBLA:1,2014-03-02T10:00:00Z,30.4367,-88.0117,14.03,1111122 
DISL,ioos:station:DISL:MBLA:1,2014-03-02T10:30:00Z,30.4367,-88.0117,14.1,1111122 
DISL,ioos:station:DISL:MBLA:1,2014-03-02T11:00:00Z,30.4367,-88.0117,14.06,1111122 
DISL,ioos:station:DISL:MBLA:1,2014-03-02T11:30:00Z,30.4367,-88.0117,14.26,1111122 
DISL,ioos:station:DISL:MBLA:1,2014-03-02T12:00:00Z,30.4367,-88.0117,14.37,1111122 
DISL,ioos:station:DISL:MBLA:1,2014-03-02T12:30:00Z,30.4367,-88.0117,14.5,1111122 
DISL,ioos:station:DISL:MBLA:1,2014-03-02T13:00:00Z,30.4367,-88.0117,14.6,1111122 
DISL,ioos:station:DISL:MBLA:1,2014-03-02T13:30:00Z,30.4367,-88.0117,14.91,1111122 
DISL,ioos:station:DISL:MBLA:1,2014-03-02T14:00:00Z,30.4367,-88.0117,15.21,1111122 
DISL,ioos:station:DISL:MBLA:1,2014-03-02T14:30:00Z,30.4367,-88.0117,15.41,1111122 
DISL,ioos:station:DISL:MBLA:1,2014-03-02T15:00:00Z,30.4367,-88.0117,15.34,1111122 
DISL,ioos:station:DISL:MBLA:1,2014-03-02T15:30:00Z,30.4367,-88.0117,15.95,1111122 
DISL,ioos:station:DISL:MBLA:1,2014-03-02T16:00:00Z,30.4367,-88.0117,16.18,1111122 
DISL,ioos:station:DISL:MBLA:1,2014-03-02T16:30:00Z,30.4367,-88.0117,16.28,1111122 
DISL,ioos:station:DISL:MBLA:1,2014-03-02T17:00:00Z,30.4367,-88.0117,16.45,1111122 
DISL,ioos:station:DISL:MBLA:1,2014-03-02T17:30:00Z,30.4367,-88.0117,16.42,1111122 
DISL,ioos:station:DISL:MBLA:1,2014-03-02T18:00:00Z,30.4367,-88.0117,16.62,1111122 
DISL,ioos:station:DISL:MBLA:1,2014-03-02T18:30:00Z,30.4367,-88.0117,16.38,1111122 
DISL,ioos:station:DISL:MBLA:1,2014-03-02T19:00:00Z,30.4367,-88.0117,16.48,1111122 
DISL,ioos:station:DISL:MBLA:1,2014-03-02T19:30:00Z,30.4367,-88.0117,16.58,1111122 
DISL,ioos:station:DISL:MBLA:1,2014-03-02T20:00:00Z,30.4367,-88.0117,16.54,1111122 
DISL,ioos:station:DISL:MBLA:1,2014-03-02T20:30:00Z,30.4367,-88.0117,16.78,1111122 
DISL,ioos:station:DISL:MBLA:1,2014-03-02T21:00:00Z,30.4367,-88.0117,16.75,1111122 
DISL,ioos:station:DISL:MBLA:1,2014-03-02T21:30:00Z,30.4367,-88.0117,16.71,1111122 
DISL,ioos:station:DISL:MBLA:1,2014-03-02T22:00:00Z,30.4367,-88.0117,16.68,1111122 
DISL,ioos:station:DISL:MBLA:1,2014-03-02T22:30:00Z,30.4367,-88.0117,16.78,1111122 
DISL,ioos:station:DISL:MBLA:1,2014-03-02T23:00:00Z,30.4367,-88.0117,16.61,1111122 
DISL,ioos:station:DISL:MBLA:1,2014-03-02T23:30:00Z,30.4367,-88.0117,16.41,1111122 
DISL,ioos:station:DISL:MBLA:1,2014-03-03T00:00:00Z,30.4367,-88.0117,16.18,1111122 
DISL,ioos:station:DISL:MBLA:1,2014-03-03T00:30:00Z,30.4367,-88.0117,16.31,1111122 
DISL,ioos:station:DISL:MBLA:1,2014-03-03T01:00:00Z,30.4367,-88.0117,16.08,1111122 
DISL,ioos:station:DISL:MBLA:1,2014-03-03T01:30:00Z,30.4367,-88.0117,15.98,1111122 
DISL,ioos:station:DISL:MBLA:1,2014-03-03T02:00:00Z,30.4367,-88.0117,15.78,1111122 
DISL,ioos:station:DISL:MBLA:1,2014-03-03T02:30:00Z,30.4367,-88.0117,15.88,1111122 
DISL,ioos:station:DISL:MBLA:1,2014-03-03T03:00:00Z,30.4367,-88.0117,15.99,1111122 
DISL,ioos:station:DISL:MBLA:1,2014-03-03T03:30:00Z,30.4367,-88.0117,15.92,1111122 
DISL,ioos:station:DISL:MBLA:1,2014-03-03T04:00:00Z,30.4367,-88.0117,15.88,1111122 
DISL,ioos:station:DISL:MBLA:1,2014-03-03T04:30:00Z,30.4367,-88.0117,15.85,1111122 
DISL,ioos:station:DISL:MBLA:1,2014-03-03T05:00:00Z,30.4367,-88.0117,15.92,1111122 
DISL,ioos:station:DISL:MBLA:1,2014-03-03T05:30:00Z,30.4367,-88.0117,16.02,1111122 
DISL,ioos:station:DISL:MBLA:1,2014-03-03T06:00:00Z,30.4367,-88.0117,15.75,1111122 
DISL,ioos:station:DISL:MBLA:1,2014-03-03T06:30:00Z,30.4367,-88.0117,16.02,1111122 
DISL,ioos:station:DISL:MBLA:1,2014-03-03T07:00:00Z,30.4367,-88.0117,15.71,1111122 
DISL,ioos:station:DISL:MBLA:1,2014-03-03T07:30:00Z,30.4367,-88.0117,15.65,1111122 
DISL,ioos:station:DISL:MBLA:1,2014-03-03T08:00:00Z,30.4367,-88.0117,15.75,1111122 
DISL,ioos:station:DISL:MBLA:1,2014-03-03T08:30:00Z,30.4367,-88.0117,15.78,1111122 
DISL,ioos:station:DISL:MBLA:1,2014-03-03T09:00:00Z,30.4367,-88.0117,15.75,1111122 
DISL,ioos:station:DISL:MBLA:1,2014-03-03T09:30:00Z,30.4367,-88.0117,15.78,1111122 
DISL,ioos:station:DISL:MBLA:1,2014-03-03T10:00:00Z,30.4367,-88.0117,15.99,1111122 
DISL,ioos:station:DISL:MBLA:1,2014-03-03T10:30:00Z,30.4367,-88.0117,15.71,1111122 
DISL,ioos:station:DISL:MBLA:1,2014-03-03T11:00:00Z,30.4367,-88.0117,15.82,1111122 
DISL,ioos:station:DISL:MBLA:1,2014-03-03T11:30:00Z,30.4367,-88.0117,16.12,1111122 
DISL,ioos:station:DISL:MBLA:1,2014-03-03T12:00:00Z,30.4367,-88.0117,16.29,1111122 
DISL,ioos:station:DISL:MBLA:1,2014-03-03T12:30:00Z,30.4367,-88.0117,16.46,1111122 
DISL,ioos:station:DISL:MBLA:1,2014-03-03T13:00:00Z,30.4367,-88.0117,16.63,1111122 
DISL,ioos:station:DISL:MBLA:1,2014-03-03T13:30:00Z,30.4367,-88.0117,16.87,1111122 
DISL,ioos:station:DISL:MBLA:1,2014-03-03T14:00:00Z,30.4367,-88.0117,17.58,1111122 
DISL,ioos:station:DISL:MBLA:1,2014-03-03T14:30:00Z,30.4367,-88.0117,17.33,1111122 
DISL,ioos:station:DISL:MBLA:1,2014-03-03T15:00:00Z,30.4367,-88.0117,14.25,1111122 
DISL,ioos:station:DISL:MBLA:1,2014-03-03T15:30:00Z,30.4367,-88.0117,11.58,1111122 
DISL,ioos:station:DISL:MBLA:1,2014-03-03T16:00:00Z,30.4367,-88.0117,10.53,1111122 
DISL,ioos:station:DISL:MBLA:1,2014-03-03T16:30:00Z,30.4367,-88.0117,9.66,1111122 
DISL,ioos:station:DISL:MBLA:1,2014-03-03T17:00:00Z,30.4367,-88.0117,9.02,1111122 
DISL,ioos:station:DISL:MBLA:1,2014-03-03T17:30:00Z,30.4367,-88.0117,8.99,1111122 
DISL,ioos:station:DISL:MBLA:1,2014-03-03T18:00:00Z,30.4367,-88.0117,9.2,1111122 
DISL,ioos:station:DISL:MBLA:1,2014-03-03T18:30:00Z,30.4367,-88.0117,9.8,1111122 
DISL,ioos:station:DISL:MBLA:1,2014-03-03T19:00:00Z,30.4367,-88.0117,10.1,1111122 
DISL,ioos:station:DISL:MBLA:1,2014-03-03T19:30:00Z,30.4367,-88.0117,10.0,1111122 
DISL,ioos:station:DISL:MBLA:1,2014-03-03T20:00:00Z,30.4367,-88.0117,9.99,1111122 
DISL,ioos:station:DISL:MBLA:1,2014-03-03T20:30:00Z,30.4367,-88.0117,10.13,1111122 
DISL,ioos:station:DISL:MBLA:1,2014-03-03T21:00:00Z,30.4367,-88.0117,10.43,1111122 
DISL,ioos:station:DISL:MBLA:1,2014-03-03T21:30:00Z,30.4367,-88.0117,9.89,1111122 
DISL,ioos:station:DISL:MBLA:1,2014-03-03T22:00:00Z,30.4367,-88.0117,10.23,1111122 
DISL,ioos:station:DISL:MBLA:1,2014-03-03T22:30:00Z,30.4367,-88.0117,9.55,1111122 
DISL,ioos:station:DISL:MBLA:1,2014-03-03T23:00:00Z,30.4367,-88.0117,8.64,1111122 
DISL,ioos:station:DISL:MBLA:1,2014-03-03T23:30:00Z,30.4367,-88.0117,7.018,1111122 
DISL,ioos:station:DISL:MBLA:1,2014-03-04T00:00:00Z,30.4367,-88.0117,6.215,1111122 
DISL,ioos:station:DISL:MBLA:1,2014-03-04T00:30:00Z,30.4367,-88.0117,5.78,1111122 
DISL,ioos:station:DISL:MBLA:1,2014-03-04T01:00:00Z,30.4367,-88.0117,5.105,1111122 
DISL,ioos:station:DISL:MBLA:1,2014-03-04T01:30:00Z,30.4367,-88.0117,4.5,1111122 
DISL,ioos:station:DISL:MBLA:1,2014-03-04T02:00:00Z,30.4367,-88.0117,4.501,1111122 
DISL,ioos:station:DISL:MBLA:1,2014-03-04T02:30:00Z,30.4367,-88.0117,3.823,1111122 
DISL,ioos:station:DISL:MBLA:1,2014-03-04T03:00:00Z,30.4367,-88.0117,3.255,1111122 
DISL,ioos:station:DISL:MBLA:1,2014-03-04T03:30:00Z,30.4367,-88.0117,3.158,1111122 
DISL,ioos:station:DISL:MBLA:1,2014-03-04T04:00:00Z,30.4367,-88.0117,3.192,1111122 
DISL,ioos:station:DISL:MBLA:1,2014-03-04T04:30:00Z,30.4367,-88.0117,2.716,1111122 
DISL,ioos:station:DISL:MBLA:1,2014-03-04T05:00:00Z,30.4367,-88.0117,2.275,1111122 
DISL,ioos:station:DISL:MBLA:1,2014-03-04T05:30:00Z,30.4367,-88.0117,2.241,1111122 
DISL,ioos:station:DISL:MBLA:1,2014-03-04T06:00:00Z,30.4367,-88.0117,2.241,1111122 
DISL,ioos:station:DISL:MBLA:1,2014-03-04T06:30:00Z,30.4367,-88.0117,2.207,1111122 
DISL,ioos:station:DISL:MBLA:1,2014-03-04T07:00:00Z,30.4367,-88.0117,2.139,1111122 
DISL,ioos:station:DISL:MBLA:1,2014-03-04T07:30:00Z,30.4367,-88.0117,2.105,1111122 
DISL,ioos:station:DISL:MBLA:1,2014-03-04T08:00:00Z,30.4367,-88.0117,2.242,1111122 
DISL,ioos:station:DISL:MBLA:1,2014-03-04T08:30:00Z,30.4367,-88.0117,2.073,1111122 
DISL,ioos:station:DISL:MBLA:1,2014-03-04T09:00:00Z,30.4367,-88.0117,2.144,1111122 
DISL,ioos:station:DISL:MBLA:1,2014-03-04T09:30:00Z,30.4367,-88.0117,2.11,1111122 
DISL,ioos:station:DISL:MBLA:1,2014-03-04T10:00:00Z,30.4367,-88.0117,2.177,1111122 
DISL,ioos:station:DISL:MBLA:1,2014-03-04T10:30:00Z,30.4367,-88.0117,2.11,1111122 
DISL,ioos:station:DISL:MBLA:1,2014-03-04T11:00:00Z,30.4367,-88.0117,2.044,1111122 
DISL,ioos:station:DISL:MBLA:1,2014-03-04T11:30:00Z,30.4367,-88.0117,1.909,1111122 
DISL,ioos:station:DISL:MBLA:1,2014-03-04T12:00:00Z,30.4367,-88.0117,1.841,1111122 
DISL,ioos:station:DISL:MBLA:1,2014-03-04T12:30:00Z,30.4367,-88.0117,1.807,1111122 
DISL,ioos:station:DISL:MBLA:1,2014-03-04T13:00:00Z,30.4367,-88.0117,2.044,1111122 
DISL,ioos:station:DISL:MBLA:1,2014-03-04T13:30:00Z,30.4367,-88.0117,2.248,1111122 
DISL,ioos:station:DISL:MBLA:1,2014-03-04T14:00:00Z,30.4367,-88.0117,2.384,1111122 
DISL,ioos:station:DISL:MBLA:1,2014-03-04T14:30:00Z,30.4367,-88.0117,2.723,1111122 
DISL,ioos:station:DISL:MBLA:1,2014-03-04T15:00:00Z,30.4367,-88.0117,2.685,1111122 
DISL,ioos:station:DISL:MBLA:1,2014-03-04T15:30:00Z,30.4367,-88.0117,2.988,1111122 
DISL,ioos:station:DISL:MBLA:1,2014-03-04T16:00:00Z,30.4367,-88.0117,3.158,1111122 
DISL,ioos:station:DISL:MBLA:1,2014-03-04T16:30:00Z,30.4367,-88.0117,3.192,1111122 
DISL,ioos:station:DISL:MBLA:1,2014-03-04T17:00:00Z,30.4367,-88.0117,3.26,1111122 
DISL,ioos:station:DISL:MBLA:1,2014-03-04T17:30:00Z,30.4367,-88.0117,3.464,1111122 
DISL,ioos:station:DISL:MBLA:1,2014-03-04T18:00:00Z,30.4367,-88.0117,3.633,1111122 
DISL,ioos:station:DISL:MBLA:1,2014-03-04T18:30:00Z,30.4367,-88.0117,3.599,1111122 
DISL,ioos:station:DISL:MBLA:1,2014-03-04T19:00:00Z,30.4367,-88.0117,3.973,1111122 
DISL,ioos:station:DISL:MBLA:1,2014-03-04T19:30:00Z,30.4367,-88.0117,4.007,1111122 
DISL,ioos:station:DISL:MBLA:1,2014-03-04T20:00:00Z,30.4367,-88.0117,4.007,1111122 
DISL,ioos:station:DISL:MBLA:1,2014-03-04T20:30:00Z,30.4367,-88.0117,3.973,1111122 
DISL,ioos:station:DISL:MBLA:1,2014-03-04T21:00:00Z,30.4367,-88.0117,4.143,1111122 
DISL,ioos:station:DISL:MBLA:1,2014-03-04T21:30:00Z,30.4367,-88.0117,4.244,1111122 
DISL,ioos:station:DISL:MBLA:1,2014-03-04T22:00:00Z,30.4367,-88.0117,4.177,1111122 
DISL,ioos:station:DISL:MBLA:1,2014-03-04T22:30:00Z,30.4367,-88.0117,4.177,1111122 
DISL,ioos:station:DISL:MBLA:1,2014-03-04T23:00:00Z,30.4367,-88.0117,4.38,1111122 
DISL,ioos:station:DISL:MBLA:1,2014-03-04T23:30:00Z,30.4367,-88.0117,4.55,1111122 
DISL,ioos:station:DISL:MBLA:1,2014-03-05T00:00:00Z,30.4367,-88.0117,4.754,1111122 
DISL,ioos:station:DISL:MBLA:1,2014-03-05T00:30:00Z,30.4367,-88.0117,4.958,1111122 
DISL,ioos:station:DISL:MBLA:1,2014-03-05T01:00:00Z,30.4367,-88.0117,5.093,1111122 
DISL,ioos:station:DISL:MBLA:1,2014-03-05T01:30:00Z,30.4367,-88.0117,5.127,1111122 
DISL,ioos:station:DISL:MBLA:1,2014-03-05T02:00:00Z,30.4367,-88.0117,5.127,1111122 
DISL,ioos:station:DISL:MBLA:1,2014-03-05T02:30:00Z,30.4367,-88.0117,5.263,1111122 
DISL,ioos:station:DISL:MBLA:1,2014-03-05T03:00:00Z,30.4367,-88.0117,5.399,1111122 
DISL,ioos:station:DISL:MBLA:1,2014-03-05T03:30:00Z,30.4367,-88.0117,5.433,1111122 
DISL,ioos:station:DISL:MBLA:1,2014-03-05T04:00:00Z,30.4367,-88.0117,5.127,1111122 
DISL,ioos:station:DISL:MBLA:1,2014-03-05T04:30:00Z,30.4367,-88.0117,5.365,1111122 
DISL,ioos:station:DISL:MBLA:1,2014-03-05T05:00:00Z,30.4367,-88.0117,5.433,1111122 
DISL,ioos:station:DISL:MBLA:1,2014-03-05T05:30:00Z,30.4367,-88.0117,5.601,1111122 
DISL,ioos:station:DISL:MBLA:1,2014-03-05T06:00:00Z,30.4367,-88.0117,5.735,1111122 
DISL,ioos:station:DISL:MBLA:1,2014-03-05T06:30:00Z,30.4367,-88.0117,5.838,1111122 
DISL,ioos:station:DISL:MBLA:1,2014-03-05T07:00:00Z,30.4367,-88.0117,5.529,1111122 
DISL,ioos:station:DISL:MBLA:1,2014-03-05T07:30:00Z,30.4367,-88.0117,5.901,1111122 
DISL,ioos:station:DISL:MBLA:1,2014-03-05T08:00:00Z,30.4367,-88.0117,6.069,1111122 
DISL,ioos:station:DISL:MBLA:1,2014-03-05T08:30:00Z,30.4367,-88.0117,6.236,1111122 
DISL,ioos:station:DISL:MBLA:1,2014-03-05T09:00:00Z,30.4367,-88.0117,6.47,1111122 
DISL,ioos:station:DISL:MBLA:1,2014-03-05T09:30:00Z,30.4367,-88.0117,6.572,1111122 
DISL,ioos:station:DISL:MBLA:1,2014-03-05T10:00:00Z,30.4367,-88.0117,6.64,1111122 
DISL,ioos:station:DISL:MBLA:1,2014-03-05T10:30:00Z,30.4367,-88.0117,6.809,1111122 
DISL,ioos:station:DISL:MBLA:1,2014-03-05T11:00:00Z,30.4367,-88.0117,6.979,1111122 
DISL,ioos:station:DISL:MBLA:1,2014-03-05T11:30:00Z,30.4367,-88.0117,6.979,1111122 
DISL,ioos:station:DISL:MBLA:1,2014-03-05T12:00:00Z,30.4367,-88.0117,7.081,1111122 
DISL,ioos:station:DISL:MBLA:1,2014-03-05T12:30:00Z,30.4367,-88.0117,7.149,1111122 
DISL,ioos:station:DISL:MBLA:1,2014-03-05T13:00:00Z,30.4367,-88.0117,7.081,1111122 
DISL,ioos:station:DISL:MBLA:1,2014-03-05T13:30:00Z,30.4367,-88.0117,7.081,1111122 
DISL,ioos:station:DISL:MBLA:1,2014-03-05T14:00:00Z,30.4367,-88.0117,6.877,1111122 
DISL,ioos:station:DISL:MBLA:1,2014-03-05T14:30:00Z,30.4367,-88.0117,7.284,1111122 
DISL,ioos:station:DISL:MBLA:1,2014-03-05T15:00:00Z,30.4367,-88.0117,7.719,1111122 
DISL,ioos:station:DISL:MBLA:1,2014-03-05T15:30:00Z,30.4367,-88.0117,8.36,1111122 
DISL,ioos:station:DISL:MBLA:1,2014-03-05T16:00:00Z,30.4367,-88.0117,9.04,1111122 
DISL,ioos:station:DISL:MBLA:1,2014-03-05T16:30:00Z,30.4367,-88.0117,10.32,1111122 
DISL,ioos:station:DISL:MBLA:1,2014-03-05T17:00:00Z,30.4367,-88.0117,11.51,1111122 
DISL,ioos:station:DISL:MBLA:1,2014-03-05T17:30:00Z,30.4367,-88.0117,12.21,1111122 
DISL,ioos:station:DISL:MBLA:1,2014-03-05T18:00:00Z,30.4367,-88.0117,11.01,1111122 
DISL,ioos:station:DISL:MBLA:1,2014-03-05T18:30:00Z,30.4367,-88.0117,11.04,1111122 
DISL,ioos:station:DISL:MBLA:1,2014-03-05T19:00:00Z,30.4367,-88.0117,11.66,1111122 
DISL,ioos:station:DISL:MBLA:1,2014-03-05T19:30:00Z,30.4367,-88.0117,11.93,1111122 
DISL,ioos:station:DISL:MBLA:1,2014-03-05T20:00:00Z,30.4367,-88.0117,12.16,1111122 
DISL,ioos:station:DISL:MBLA:1,2014-03-05T20:30:00Z,30.4367,-88.0117,12.64,1111122 
DISL,ioos:station:DISL:MBLA:1,2014-03-05T21:00:00Z,30.4367,-88.0117,13.01,1111122 
DISL,ioos:station:DISL:MBLA:1,2014-03-05T21:30:00Z,30.4367,-88.0117,13.25,1111122 
DISL,ioos:station:DISL:MBLA:1,2014-03-05T22:00:00Z,30.4367,-88.0117,13.38,1111122 
DISL,ioos:station:DISL:MBLA:1,2014-03-05T22:30:00Z,30.4367,-88.0117,13.55,1111122 
DISL,ioos:station:DISL:MBLA:1,2014-03-05T23:00:00Z,30.4367,-88.0117,13.15,1111122 
DISL,ioos:station:DISL:MBLA:1,2014-03-05T23:30:00Z,30.4367,-88.0117,13.25,1111122 
DISL,ioos:station:DISL:MBLA:1,2014-03-06T00:00:00Z,30.4367,-88.0117,13.01,1111122 
DISL,ioos:station:DISL:MBLA:1,2014-03-06T00:30:00Z,30.4367,-88.0117,12.81,1111122 
DISL,ioos:station:DISL:MBLA:1,2014-03-06T01:00:00Z,30.4367,-88.0117,12.64,1111122 
DISL,ioos:station:DISL:MBLA:1,2014-03-06T01:30:00Z,30.4367,-88.0117,12.34,1111122 
DISL,ioos:station:DISL:MBLA:1,2014-03-06T02:00:00Z,30.4367,-88.0117,12.2,1111122 
DISL,ioos:station:DISL:MBLA:1,2014-03-06T02:30:00Z,30.4367,-88.0117,12.2,1111122 
DISL,ioos:station:DISL:MBLA:1,2014-03-06T03:00:00Z,30.4367,-88.0117,12.51,1111122 
DISL,ioos:station:DISL:MBLA:1,2014-03-06T03:30:00Z,30.4367,-88.0117,12.37,1111122 
DISL,ioos:station:DISL:MBLA:1,2014-03-06T04:00:00Z,30.4367,-88.0117,12.48,1111122 
DISL,ioos:station:DISL:MBLA:1,2014-03-06T04:30:00Z,30.4367,-88.0117,12.51,1111122 
DISL,ioos:station:DISL:MBLA:1,2014-03-06T05:00:00Z,30.4367,-88.0117,12.14,1111122 
DISL,ioos:station:DISL:MBLA:1,2014-03-06T05:30:00Z,30.4367,-88.0117,11.9,1111122 
DISL,ioos:station:DISL:MBLA:1,2014-03-06T06:00:00Z,30.4367,-88.0117,11.7,1111122 
DISL,ioos:station:DISL:MBLA:1,2014-03-06T06:30:00Z,30.4367,-88.0117,11.57,1111122 
DISL,ioos:station:DISL:MBLA:1,2014-03-06T07:00:00Z,30.4367,-88.0117,11.33,1111122 
DISL,ioos:station:DISL:MBLA:1,2014-03-06T07:30:00Z,30.4367,-88.0117,11.37,1111122 
DISL,ioos:station:DISL:MBLA:1,2014-03-06T08:00:00Z,30.4367,-88.0117,11.3,1111122 
DISL,ioos:station:DISL:MBLA:1,2014-03-06T08:30:00Z,30.4367,-88.0117,11.2,1111122 
DISL,ioos:station:DISL:MBLA:1,2014-03-06T09:00:00Z,30.4367,-88.0117,11.03,1111122 
DISL,ioos:station:DISL:MBLA:1,2014-03-06T09:30:00Z,30.4367,-88.0117,11.03,1111122 
DISL,ioos:station:DISL:MBLA:1,2014-03-06T10:00:00Z,30.4367,-88.0117,11.13,1111122 
DISL,ioos:station:DISL:MBLA:1,2014-03-06T10:30:00Z,30.4367,-88.0117,11.1,1111122 
DISL,ioos:station:DISL:MBLA:1,2014-03-06T11:00:00Z,30.4367,-88.0117,10.96,1111122 
DISL,ioos:station:DISL:MBLA:1,2014-03-06T11:30:00Z,30.4367,-88.0117,11.03,1111122 
DISL,ioos:station:DISL:MBLA:1,2014-03-06T12:00:00Z,30.4367,-88.0117,11.3,1111122 
DISL,ioos:station:DISL:MBLA:1,2014-03-06T12:30:00Z,30.4367,-88.0117,11.23,1111122 
DISL,ioos:station:DISL:MBLA:1,2014-03-06T13:00:00Z,30.4367,-88.0117,11.1,1111122 
DISL,ioos:station:DISL:MBLA:1,2014-03-06T13:30:00Z,30.4367,-88.0117,11.17,1111122 
DISL,ioos:station:DISL:MBLA:1,2014-03-06T14:00:00Z,30.4367,-88.0117,11.34,1111122 
DISL,ioos:station:DISL:MBLA:1,2014-03-06T14:30:00Z,30.4367,-88.0117,11.37,1111122 
DISL,ioos:station:DISL:MBLA:1,2014-03-06T15:00:00Z,30.4367,-88.0117,11.37,1111122 
DISL,ioos:station:DISL:MBLA:1,2014-03-06T15:30:00Z,30.4367,-88.0117,11.37,1111122 
DISL,ioos:station:DISL:MBLA:1,2014-03-06T16:00:00Z,30.4367,-88.0117,11.26,1111122 
DISL,ioos:station:DISL:MBLA:1,2014-03-06T16:30:00Z,30.4367,-88.0117,11.19,1111122 
DISL,ioos:station:DISL:MBLA:1,2014-03-06T17:00:00Z,30.4367,-88.0117,11.26,1111122 
DISL,ioos:station:DISL:MBLA:1,2014-03-06T17:30:00Z,30.4367,-88.0117,11.36,1111122 
DISL,ioos:station:DISL:MBLA:1,2014-03-06T18:00:00Z,30.4367,-88.0117,11.39,1111122 
DISL,ioos:station:DISL:MBLA:1,2014-03-06T18:30:00Z,30.4367,-88.0117,11.29,1111122 
DISL,ioos:station:DISL:MBLA:1,2014-03-06T19:00:00Z,30.4367,-88.0117,11.56,1111122 
DISL,ioos:station:DISL:MBLA:1,2014-03-06T19:30:00Z,30.4367,-88.0117,11.49,1111122 
DISL,ioos:station:DISL:MBLA:1,2014-03-06T20:00:00Z,30.4367,-88.0117,11.43,1111122 
DISL,ioos:station:DISL:MBLA:1,2014-03-06T20:30:00Z,30.4367,-88.0117,11.5,1111122 
DISL,ioos:station:DISL:MBLA:1,2014-03-06T21:00:00Z,30.4367,-88.0117,11.5,1111122 
DISL,ioos:station:DISL:MBLA:1,2014-03-06T21:30:00Z,30.4367,-88.0117,11.46,1111122 
DISL,ioos:station:DISL:MBLA:1,2014-03-06T22:00:00Z,30.4367,-88.0117,11.5,1111122 
DISL,ioos:station:DISL:MBLA:1,2014-03-06T22:30:00Z,30.4367,-88.0117,11.64,1111122 
DISL,ioos:station:DISL:MBLA:1,2014-03-06T23:00:00Z,30.4367,-88.0117,11.57,1111122 
DISL,ioos:station:DISL:MBLA:1,2014-03-06T23:30:00Z,30.4367,-88.0117,11.3,1111122 
DISL,ioos:station:DISL:MBLA:1,2014-03-07T00:00:00Z,30.4367,-88.0117,11.23,1111122 